QPF
0.00 0.00 0.00 0.00 0.00 0.00 0.00 0.00 0.01 0.01 0.00 0.02 0.04 0.03 0.05 0.02 0.01 0.00 0.00 0.00 0.00 0.00 0.01 0.01 0.01 0.01 0.01 0.01 0.00 0.01 0.01 0.01 0.03 0.03 0.02 0.02 0.02 0.02 0.01 0.01 0.01 0.01 0.02 0.03
0.00 0.00 0.00 0.00 0.00 0.00 0.00 0.00 0.01 0.01 0.01 0.01 0.03 0.02 0.03 0.01 0.01 0.01 0.00 0.00 0.00 0.00 0.00 0.01 0.00 0.00 0.01 0.01 0.01 0.01 0.02 0.03 0.03 0.02 0.02 0.02 0.01 0.01 0.01 0.01 0.01 0.03 0.02 0.01
0.00 0.00 0.00 0.01 0.01 0.00 0.00 0.00 0.00 0.01 0.01 0.02 0.03 0.03 0.01 0.01 0.00 0.00 0.00 0.00 0.00 0.00 0.00 0.00 0.00 0.01 0.01 0.01 0.02 0.02 0.03 0.04 0.03 0.03 0.03 0.02 0.02 0.02 0.02 0.02 0.02 0.02 0.02 0.02
0.00 0.01 0.02 0.02 0.01 0.00 0.00 0.00 0.00 0.00 0.01 0.01 0.02 0.02 0.01 0.01 0.01 0.01 0.01 0.00 0.00 0.01 0.01 0.01 0.01 0.01 0.02 0.03 0.04 0.04 0.04 0.04 0.05 0.04 0.04 0.04 0.04 0.03 0.04 0.03 0.03 0.02 0.03 0.03
0.00 0.01 0.02 0.03 0.02 0.01 0.00 0.00 0.00 0.00 0.03 0.03 0.02 0.02 0.02 0.02 0.01 0.02 0.02 0.02 0.01 0.01 0.01 0.01 0.01 0.01 0.01 0.02 0.02 0.03 0.04 0.04 0.04 0.04 0.04 0.03 0.03 0.02 0.03 0.04 0.04 0.03 0.03 0.04
0.01 0.02 0.03 0.03 0.01 0.00 0.00 0.01 0.01 0.00 0.01 0.01 0.03 0.05 0.05 0.03 0.02 0.02 0.03 0.04 0.04 0.02 0.01 0.01 0.01 0.01 0.02 0.02 0.02 0.02 0.03 0.03 0.03 0.03 0.03 0.02 0.02 0.03 0.04 0.04 0.04 0.05 0.05 0.04
0.01 0.02 0.02 0.01 0.00 0.00 0.02 0.03 0.01 0.00 0.01 0.02 0.01 0.03 0.04 0.06 0.05 0.03 0.03 0.04 0.04 0.04 0.02 0.02 0.02 0.02 0.03 0.03 0.03 0.03 0.04 0.04 0.04 0.03 0.03 0.03 0.04 0.06 0.07 0.08 0.08 0.07 0.06 0.06
0.01 0.02 0.02 0.01 0.01 0.02 0.02 0.01 0.00 0.01 0.02 0.02 0.02 0.02 0.03 0.03 0.04 0.04 0.04 0.04 0.03 0.04 0.04 0.05 0.04 0.03 0.04 0.04 0.05 0.05 0.05 0.06 0.06 0.05 0.05 0.05 0.07 0.07 0.09 0.11 0.11 0.10 0.08 0.07
0.01 0.03 0.02 0.01 0.01 0.03 0.03 0.02 0.01 0.01 0.01 0.02 0.01 0.01 0.01 0.02 0.03 0.04 0.05 0.05 0.05 0.05 0.05 0.06 0.07 0.06 0.06 0.06 0.07 0.07 0.07 0.07 0.08 0.10 0.12 0.12 0.12 0.09 0.08 0.08 0.08 0.07 0.06 0.07
0.01 0.01 0.03 0.04 0.02 0.03 0.04 0.02 0.01 0.01 0.01 0.01 0.01 0.01 0.02 0.03 0.03 0.04 0.05 0.04 0.04 0.06 0.07 0.08 0.08 0.09 0.09 0.08 0.09 0.09 0.10 0.13 0.15 0.14 0.15 0.17 0.20 0.18 0.11 0.07 0.05 0.04 0.03 0.04
0.03 0.02 0.02 0.02 0.03 0.05 0.04 0.02 0.01 0.01 0.01 0.01 0.01 0.02 0.03 0.04 0.04 0.05 0.05 0.04 0.04 0.06 0.08 0.09 0.09 0.09 0.09 0.08 0.08 0.10 0.11 0.13 0.20 0.19 0.20 0.20 0.19 0.20 0.15 0.10 0.08 0.04 0.02 0.02
0.04 0.04 0.04 0.03 0.03 0.06 0.05 0.02 0.02 0.02 0.02 0.02 0.02 0.03 0.03 0.03 0.04 0.05 0.06 0.05 0.04 0.06 0.07 0.08 0.08 0.08 0.07 0.06 0.06 0.08 0.09 0.11 0.13 0.15 0.17 0.19 0.18 0.18 0.18 0.15 0.13 0.08 0.04 0.03
0.02 0.03 0.02 0.02 0.03 0.04 0.03 0.02 0.02 0.02 0.02 0.03 0.03 0.03 0.03 0.04 0.04 0.05 0.05 0.04 0.03 0.03 0.04 0.05 0.06 0.07 0.07 0.06 0.07 0.08 0.09 0.11 0.12 0.14 0.16 0.18 0.17 0.16 0.14 0.14 0.14 0.10 0.06 0.04
0.02 0.02 0.02 0.02 0.03 0.03 0.03 0.03 0.03 0.03 0.03 0.04 0.05 0.04 0.04 0.04 0.03 0.05 0.05 0.04 0.02 0.02 0.02 0.03 0.03 0.04 0.05 0.06 0.07 0.09 0.09 0.09 0.10 0.12 0.14 0.15 0.13 0.12 0.09 0.10 0.09 0.07 0.05 0.05
0.02 0.02 0.02 0.03 0.03 0.03 0.03 0.03 0.04 0.04 0.04 0.05 0.05 0.05 0.05 0.03 0.02 0.03 0.03 0.03 0.02 0.02 0.02 0.03 0.02 0.03 0.03 0.04 0.05 0.07 0.11 0.10 0.09 0.09 0.13 0.22 0.19 0.11 0.09 0.08 0.07 0.07 0.06 0.07
0.02 0.02 0.03 0.04 0.05 0.04 0.04 0.04 0.05 0.05 0.04 0.05 0.05 0.05 0.05 0.04 0.02 0.02 0.02 0.02 0.02 0.03 0.03 0.03 0.03 0.03 0.03 0.04 0.05 0.05 0.06 0.09 0.10 0.10 0.10 0.15 0.17 0.14 0.12 0.10 0.09 0.09 0.07 0.07
0.02 0.03 0.03 0.04 0.05 0.05 0.05 0.04 0.04 0.05 0.04 0.04 0.05 0.05 0.04 0.03 0.03 0.03 0.02 0.02 0.02 0.03 0.03 0.03 0.03 0.03 0.03 0.04 0.05 0.05 0.04 0.05 0.07 0.07 0.07 0.09 0.11 0.11 0.11 0.10 0.10 0.11 0.10 0.10
0.02 0.03 0.03 0.03 0.03 0.04 0.04 0.03 0.03 0.05 0.05 0.04 0.04 0.04 0.04 0.04 0.04 0.03 0.03 0.02 0.02 0.02 0.02 0.02 0.02 0.02 0.02 0.04 0.04 0.05 0.04 0.03 0.03 0.03 0.04 0.06 0.06 0.06 0.08 0.10 0.10 0.10 0.10 0.10
0.02 0.03 0.02 0.02 0.01 0.02 0.03 0.03 0.04 0.06 0.05 0.04 0.04 0.04 0.03 0.04 0.05 0.04 0.03 0.02 0.03 0.03 0.02 0.02 0.03 0.02 0.03 0.04 0.05 0.05 0.05 0.05 0.03 0.03 0.03 0.04 0.04 0.03 0.03 0.05 0.06 0.07 0.07 0.06
0.01 0.02 0.02 0.02 0.01 0.02 0.03 0.04 0.04 0.05 0.04 0.04 0.05 0.05 0.04 0.04 0.05 0.05 0.04 0.03 0.03 0.03 0.03 0.03 0.03 0.02 0.02 0.03 0.04 0.06 0.05 0.06 0.06 0.06 0.05 0.04 0.05 0.05 0.04 0.04 0.04 0.05 0.05 0.05
0.01 0.01 0.02 0.02 0.02 0.02 0.03 0.04 0.04 0.04 0.03 0.03 0.04 0.05 0.05 0.05 0.04 0.04 0.04 0.03 0.03 0.03 0.03 0.03 0.03 0.03 0.02 0.02 0.04 0.06 0.05 0.06 0.05 0.06 0.06 0.06 0.05 0.04 0.03 0.03 0.03 0.03 0.04 0.04
0.02 0.03 0.03 0.03 0.03 0.04 0.05 0.04 0.04 0.04 0.04 0.03 0.03 0.04 0.04 0.03 0.03 0.04 0.03 0.04 0.04 0.02 0.02 0.02 0.02 0.02 0.02 0.02 0.02 0.06 0.05 0.04 0.04 0.04 0.04 0.04 0.03 0.03 0.02 0.02 0.02 0.02 0.02 0.03
0.03 0.03 0.04 0.05 0.05 0.06 0.06 0.04 0.04 0.04 0.05 0.05 0.04 0.03 0.03 0.04 0.04 0.04 0.03 0.03 0.03 0.03 0.03 0.02 0.01 0.01 0.02 0.03 0.03 0.03 0.03 0.03 0.03 0.02 0.03 0.03 0.03 0.03 0.02 0.02 0.02 0.03 0.03 0.04
0.04 0.05 0.06 0.04 0.04 0.05 0.05 0.04 0.06 0.07 0.06 0.05 0.04 0.03 0.04 0.04 0.04 0.02 0.02 0.01 0.01 0.02 0.03 0.01 0.00 0.00 0.01 0.03 0.03 0.03 0.02 0.02 0.02 0.01 0.02 0.02 0.02 0.03 0.03 0.03 0.03 0.03 0.04 0.04
0.05 0.06 0.05 0.03 0.03 0.04 0.04 0.05 0.05 0.04 0.03 0.03 0.03 0.02 0.02 0.02 0.02 0.02 0.01 0.01 0.01 0.00 0.00 0.00 0.00 0.00 0.01 0.01 0.01 0.01 0.01 0.01 0.01 0.01 0.01 0.01 0.01 0.02 0.02 0.03 0.03 0.03 0.03 0.03
0.06 0.06 0.04 0.03 0.02 0.03 0.03 0.03 0.03 0.03 0.03 0.03 0.02 0.01 0.01 0.01 0.01 0.02 0.03 0.02 0.01 0.01 0.02 0.02 0.01 0.01 0.01 0.01 0.01 0.02 0.02 0.01 0.01 0.00 0.00 0.00 0.01 0.01 0.01 0.02 0.02 0.02 0.02 0.01
0.08 0.06 0.05 0.04 0.03 0.03 0.03 0.03 0.04 0.04 0.03 0.02 0.01 0.01 0.01 0.01 0.02 0.03 0.04 0.03 0.02 0.02 0.03 0.03 0.02 0.02 0.02 0.02 0.02 0.01 0.01 0.01 0.00 0.00 0.01 0.00 0.01 0.01 0.01 0.01 0.01 0.01 0.01 0.01
MSLP
1006.16 1006.11 1005.96 1005.75 1005.52 1005.32 1005.17 1005.09 1005.08 1005.14 1005.25 1005.43 1005.66 1005.96 1006.34 1006.78 1007.31 1007.91 1008.56 1009.23 1009.90 1010.53 1011.09 1011.58 1011.99 1012.33 1012.62 1012.87 1013.10 1013.33 1013.56 1013.79 1014.00 1014.19 1014.34 1014.45 1014.53 1014.59 1014.64 1014.70 1014.78 1014.90 1015.04 1015.19
1006.69 1006.61 1006.37 1006.01 1005.57 1005.13 1004.74 1004.46 1004.32 1004.33 1004.50 1004.82 1005.27 1005.83 1006.47 1007.16 1007.86 1008.57 1009.24 1009.87 1010.44 1010.94 1011.38 1011.76 1012.09 1012.40 1012.70 1012.98 1013.27 1013.55 1013.82 1014.06 1014.25 1014.40 1014.50 1014.55 1014.56 1014.56 1014.56 1014.59 1014.66 1014.77 1014.92 1015.08
1007.10 1007.02 1006.73 1006.26 1005.67 1005.06 1004.50 1004.07 1003.82 1003.80 1004.01 1004.44 1005.06 1005.81 1006.64 1007.49 1008.32 1009.09 1009.77 1010.35 1010.83 1011.24 1011.58 1011.90 1012.20 1012.51 1012.84 1013.18 1013.53 1013.86 1014.16 1014.41 1014.58 1014.68 1014.71 1014.67 1014.61 1014.54 1014.48 1014.47 1014.51 1014.60 1014.74 1014.90
1007.37 1007.30 1006.98 1006.45 1005.79 1005.07 1004.41 1003.89 1003.58 1003.54 1003.78 1004.28 1005.00 1005.87 1006.82 1007.78 1008.68 1009.48 1010.15 1010.70 1011.13 1011.47 1011.77 1012.07 1012.37 1012.71 1013.09 1013.49 1013.90 1014.27 1014.59 1014.82 1014.95 1014.98 1014.93 1014.80 1014.65 1014.50 1014.38 1014.32 1014.33 1014.40 1014.53 1014.68
1007.48 1007.41 1007.09 1006.55 1005.86 1005.12 1004.42 1003.86 1003.54 1003.50 1003.76 1004.30 1005.08 1006.01 1007.02 1008.03 1008.96 1009.77 1010.44 1010.96 1011.37 1011.70 1011.99 1012.30 1012.64 1013.02 1013.45 1013.91 1014.35 1014.74 1015.04 1015.24 1015.31 1015.26 1015.11 1014.90 1014.66 1014.44 1014.27 1014.16 1014.14 1014.20 1014.31 1014.45
1007.44 1007.36 1007.05 1006.53 1005.86 1005.14 1004.46 1003.93 1003.63 1003.61 1003.89 1004.45 1005.26 1006.22 1007.24 1008.26 1009.20 1010.01 1010.67 1011.19 1011.60 1011.95 1012.27 1012.61 1013.00 1013.43 1013.90 1014.39 1014.84 1015.21 1015.48 1015.62 1015.61 1015.48 1015.24 1014.94 1014.63 1014.35 1014.14 1014.01 1013.97 1014.02 1014.13 1014.26
1007.24 1007.14 1006.84 1006.37 1005.76 1005.11 1004.50 1004.04 1003.80 1003.82 1004.13 1004.72 1005.53 1006.48 1007.50 1008.50 1009.42 1010.23 1010.89 1011.42 1011.86 1012.24 1012.61 1012.99 1013.42 1013.89 1014.39 1014.87 1015.30 1015.64 1015.85 1015.91 1015.82 1015.60 1015.29 1014.93 1014.57 1014.25 1014.02 1013.89 1013.86 1013.91 1014.03 1014.17
1006.92 1006.80 1006.51 1006.09 1005.57 1005.03 1004.53 1004.18 1004.02 1004.11 1004.47 1005.07 1005.87 1006.80 1007.79 1008.77 1009.67 1010.46 1011.13 1011.68 1012.15 1012.57 1012.99 1013.41 1013.88 1014.36 1014.85 1015.31 1015.69 1015.97 1016.10 1016.08 1015.91 1015.63 1015.26 1014.86 1014.48 1014.16 1013.94 1013.83 1013.82 1013.90 1014.04 1014.19
1006.53 1006.37 1006.11 1005.75 1005.34 1004.92 1004.56 1004.33 1004.29 1004.46 1004.87 1005.49 1006.28 1007.18 1008.13 1009.07 1009.94 1010.72 1011.39 1011.96 1012.46 1012.92 1013.37 1013.83 1014.30 1014.78 1015.24 1015.64 1015.96 1016.15 1016.21 1016.11 1015.89 1015.56 1015.16 1014.76 1014.40 1014.11 1013.93 1013.85 1013.89 1014.00 1014.16 1014.33
1006.11 1005.92 1005.68 1005.40 1005.10 1004.82 1004.61 1004.52 1004.60 1004.86 1005.32 1005.96 1006.74 1007.61 1008.52 1009.41 1010.24 1011.00 1011.66 1012.25 1012.77 1013.25 1013.72 1014.18 1014.64 1015.09 1015.50 1015.84 1016.08 1016.20 1016.18 1016.03 1015.76 1015.42 1015.03 1014.66 1014.33 1014.10 1013.97 1013.96 1014.04 1014.19 1014.38 1014.56
1005.71 1005.51 1005.31 1005.10 1004.91 1004.77 1004.70 1004.75 1004.95 1005.30 1005.81 1006.46 1007.22 1008.06 1008.92 1009.76 1010.55 1011.28 1011.93 1012.51 1013.04 1013.53 1014.00 1014.45 1014.88 1015.28 1015.62 1015.89 1016.06 1016.11 1016.03 1015.85 1015.57 1015.23 1014.88 1014.56 1014.30 1014.13 1014.07 1014.11 1014.24 1014.42 1014.62 1014.80
1005.37 1005.17 1005.00 1004.88 1004.80 1004.78 1004.85 1005.02 1005.32 1005.74 1006.29 1006.95 1007.70 1008.49 1009.30 1010.09 1010.84 1011.53 1012.16 1012.73 1013.25 1013.73 1014.18 1014.60 1014.99 1015.34 1015.62 1015.81 1015.91 1015.91 1015.80 1015.60 1015.34 1015.04 1014.74 1014.48 1014.30 1014.20 1014.20 1014.28 1014.43 1014.63 1014.83 1015.00
1005.08 1004.90 1004.78 1004.72 1004.74 1004.83 1005.01 1005.29 1005.67 1006.15 1006.73 1007.39 1008.12 1008.87 1009.63 1010.37 1011.07 1011.73 1012.33 1012.88 1013.38 1013.85 1014.27 1014.66 1015.00 1015.29 1015.51 1015.65 1015.69 1015.65 1015.53 1015.33 1015.10 1014.85 1014.62 1014.43 1014.31 1014.27 1014.31 1014.42 1014.58 1014.77 1014.95 1015.09
1004.82 1004.67 1004.60 1004.61 1004.71 1004.89 1005.16 1005.52 1005.96 1006.49 1007.09 1007.75 1008.45 1009.17 1009.88 1010.58 1011.24 1011.86 1012.44 1012.97 1013.45 1013.89 1014.29 1014.64 1014.93 1015.17 1015.34 1015.43 1015.44 1015.37 1015.25 1015.08 1014.88 1014.68 1014.51 1014.39 1014.32 1014.32 1014.39 1014.50 1014.65 1014.81 1014.95 1015.05
1004.55 1004.44 1004.41 1004.48 1004.65 1004.90 1005.24 1005.67 1006.16 1006.73 1007.34 1008.00 1008.68 1009.38 1010.06 1010.72 1011.35 1011.95 1012.50 1013.01 1013.47 1013.89 1014.25 1014.57 1014.82 1015.01 1015.14 1015.19 1015.18 1015.11 1015.00 1014.85 1014.69 1014.55 1014.43 1014.35 1014.33 1014.35 1014.42 1014.52 1014.63 1014.74 1014.83 1014.89
1004.25 1004.16 1004.18 1004.30 1004.52 1004.84 1005.24 1005.71 1006.25 1006.85 1007.48 1008.14 1008.82 1009.50 1010.16 1010.81 1011.42 1011.99 1012.53 1013.02 1013.47 1013.86 1014.20 1014.48 1014.70 1014.86 1014.95 1014.98 1014.95 1014.88 1014.78 1014.66 1014.55 1014.44 1014.37 1014.33 1014.32 1014.35 1014.41 1014.48 1014.55 1014.61 1014.64 1014.64
1003.88 1003.83 1003.89 1004.05 1004.32 1004.69 1005.14 1005.66 1006.24 1006.87 1007.52 1008.20 1008.89 1009.56 1010.22 1010.86 1011.46 1012.03 1012.55 1013.03 1013.46 1013.83 1014.15 1014.40 1014.60 1014.72 1014.79 1014.80 1014.77 1014.71 1014.62 1014.52 1014.44 1014.37 1014.32 1014.31 1014.31 1014.34 1014.37 1014.41 1014.43 1014.44 1014.42 1014.37
1003.49 1003.46 1003.55 1003.76 1004.07 1004.48 1004.98 1005.55 1006.17 1006.83 1007.52 1008.22 1008.92 1009.60 1010.27 1010.91 1011.51 1012.07 1012.59 1013.06 1013.47 1013.83 1014.12 1014.35 1014.52 1014.63 1014.68 1014.67 1014.64 1014.57 1014.50 1014.42 1014.36 1014.31 1014.29 1014.28 1014.29 1014.31 1014.33 1014.33 1014.32 1014.28 1014.22 1014.13
1003.12 1003.12 1003.25 1003.49 1003.84 1004.29 1004.83 1005.44 1006.10 1006.80 1007.51 1008.24 1008.96 1009.66 1010.33 1010.97 1011.58 1012.14 1012.65 1013.10 1013.50 1013.84 1014.12 1014.33 1014.48 1014.56 1014.60 1014.58 1014.54 1014.48 1014.41 1014.35 1014.30 1014.26 1014.25 1014.25 1014.26 1014.27 1014.27 1014.26 1014.22 1014.15 1014.06 1013.94
1002.87 1002.90 1003.05 1003.32 1003.71 1004.20 1004.77 1005.41 1006.10 1006.82 1007.56 1008.30 1009.03 1009.74 1010.42 1011.06 1011.66 1012.21 1012.71 1013.16 1013.54 1013.86 1014.12 1014.32 1014.45 1014.52 1014.54 1014.52 1014.47 1014.41 1014.34 1014.27 1014.22 1014.19 1014.18 1014.18 1014.19 1014.19 1014.19 1014.16 1014.11 1014.04 1013.94 1013.81
1002.82 1002.88 1003.05 1003.35 1003.76 1004.26 1004.85 1005.50 1006.20 1006.94 1007.68 1008.42 1009.15 1009.86 1010.53 1011.16 1011.74 1012.28 1012.77 1013.19 1013.56 1013.87 1014.11 1014.29 1014.41 1014.47 1014.48 1014.46 1014.40 1014.33 1014.25 1014.18 1014.12 1014.08 1014.05 1014.04 1014.04 1014.04 1014.03 1014.01 1013.97 1013.90 1013.80 1013.69
1003.04 1003.12 1003.31 1003.62 1004.03 1004.53 1005.11 1005.75 1006.44 1007.15 1007.88 1008.59 1009.30 1009.98 1010.62 1011.23 1011.79 1012.30 1012.77 1013.18 1013.53 1013.82 1014.05 1014.23 1014.34 1014.40 1014.40 1014.37 1014.30 1014.21 1014.12 1014.03 1013.95 1013.88 1013.84 1013.81 1013.79 1013.79 1013.78 1013.76 1013.73 1013.68 1013.61 1013.52
1003.54 1003.63 1003.83 1004.12 1004.51 1004.99 1005.53 1006.13 1006.78 1007.44 1008.11 1008.78 1009.44 1010.07 1010.67 1011.24 1011.76 1012.25 1012.68 1013.07 1013.41 1013.69 1013.92 1014.09 1014.20 1014.26 1014.26 1014.22 1014.14 1014.04 1013.92 1013.80 1013.69 1013.59 1013.51 1013.45 1013.41 1013.39 1013.37 1013.36 1013.35 1013.33 1013.29 1013.24
1004.28 1004.37 1004.55 1004.81 1005.16 1005.58 1006.07 1006.60 1007.17 1007.75 1008.35 1008.95 1009.54 1010.11 1010.65 1011.16 1011.64 1012.08 1012.49 1012.86 1013.18 1013.46 1013.68 1013.85 1013.97 1014.03 1014.03 1013.98 1013.90 1013.77 1013.63 1013.48 1013.32 1013.18 1013.06 1012.96 1012.89 1012.84 1012.82 1012.81 1012.81 1012.82 1012.82 1012.82
1005.16 1005.23 1005.38 1005.60 1005.89 1006.23 1006.63 1007.07 1007.55 1008.05 1008.56 1009.07 1009.57 1010.06 1010.54 1010.99 1011.42 1011.82 1012.19 1012.54 1012.84 1013.11 1013.34 1013.51 1013.63 1013.69 1013.70 1013.65 1013.55 1013.41 1013.24 1013.05 1012.86 1012.68 1012.51 1012.37 1012.26 1012.18 1012.14 1012.13 1012.15 1012.18 1012.22 1012.27
1006.06 1006.11 1006.21 1006.36 1006.58 1006.84 1007.15 1007.49 1007.87 1008.27 1008.69 1009.11 1009.53 1009.95 1010.35 1010.74 1011.11 1011.47 1011.81 1012.12 1012.41 1012.66 1012.88 1013.06 1013.18 1013.25 1013.26 1013.21 1013.11 1012.96 1012.77 1012.56 1012.33 1012.11 1011.90 1011.72 1011.58 1011.47 1011.41 1011.40 1011.42 1011.47 1011.54 1011.63
1006.84 1006.86 1006.91 1007.00 1007.14 1007.33 1007.55 1007.81 1008.10 1008.42 1008.76 1009.10 1009.45 1009.79 1010.13 1010.46 1010.78 1011.08 1011.38 1011.66 1011.92 1012.15 1012.36 1012.53 1012.65 1012.72 1012.74 1012.70 1012.60 1012.45 1012.26 1012.04 1011.80 1011.56 1011.32 1011.12 1010.95 1010.82 1010.74 1010.71 1010.73 1010.79 1010.88 1011.00
Thickness
5792 5804 5807 5809 5812 5815 5812 5813 5807 5809 5808 5813 5818 5819 5823 5826 5825 5823 5819 5819 5818 5817 5815 5813 5810 5808 5806 5804 5803 5800 5795 5790 5786 5783 5780 5777 5774 5771 5768 5765 5764 5762 5760 5757
5778 5792 5797 5797 5804 5810 5809 5812 5811 5810 5803 5815 5819 5817 5815 5816 5816 5812 5810 5810 5810 5810 5808 5806 5805 5803 5801 5799 5797 5795 5790 5786 5783 5780 5776 5773 5770 5768 5765 5762 5760 5759 5756 5754
5761 5776 5779 5773 5790 5799 5803 5810 5807 5794 5796 5806 5803 5803 5806 5808 5807 5804 5803 5803 5801 5801 5800 5800 5800 5799 5796 5794 5792 5788 5783 5781 5778 5775 5772 5768 5767 5763 5760 5758 5757 5754 5752 5750
5753 5754 5738 5770 5800 5801 5799 5802 5806 5801 5799 5799 5797 5800 5806 5805 5800 5796 5795 5795 5795 5795 5794 5795 5795 5794 5791 5789 5786 5782 5778 5775 5772 5769 5766 5764 5761 5758 5756 5754 5752 5750 5748 5746
5744 5739 5747 5771 5785 5790 5781 5780 5793 5790 5789 5790 5793 5792 5792 5796 5794 5791 5790 5789 5789 5790 5789 5787 5786 5786 5783 5781 5778 5775 5772 5769 5767 5765 5761 5758 5755 5754 5752 5750 5747 5745 5743 5741
5738 5729 5730 5753 5781 5793 5780 5761 5781 5783 5778 5779 5778 5764 5769 5783 5785 5783 5781 5781 5780 5781 5781 5778 5777 5777 5773 5771 5769 5766 5765 5764 5763 5760 5756 5753 5751 5749 5747 5744 5741 5739 5737 5735
5731 5729 5736 5759 5777 5779 5747 5745 5772 5776 5772 5769 5766 5763 5767 5772 5772 5771 5770 5770 5771 5770 5767 5767 5768 5766 5761 5760 5759 5760 5759 5757 5755 5753 5751 5748 5745 5743 5740 5737 5734 5731 5730 5729
5726 5720 5723 5757 5760 5746 5744 5760 5765 5766 5765 5761 5761 5762 5761 5759 5757 5758 5757 5758 5760 5758 5756 5757 5756 5753 5750 5749 5750 5751 5749 5747 5745 5744 5743 5741 5737 5734 5732 5728 5725 5723 5721 5719
5723 5722 5736 5747 5745 5748 5753 5751 5754 5755 5755 5754 5750 5748 5747 5746 5745 5746 5746 5747 5747 5746 5745 5745 5746 5743 5739 5739 5740 5739 5737 5735 5734 5733 5731 5730 5727 5724 5722 5719 5717 5715 5713 5710
5722 5726 5733 5736 5740 5743 5744 5743 5746 5747 5747 5745 5738 5737 5736 5735 5735 5735 5736 5735 5735 5734 5733 5732 5734 5733 5731 5730 5730 5728 5726 5724 5723 5722 5720 5719 5717 5714 5711 5708 5706 5705 5704 5701
5712 5717 5721 5723 5727 5729 5732 5737 5738 5738 5737 5734 5731 5728 5726 5724 5723 5724 5724 5724 5723 5721 5720 5721 5721 5721 5721 5721 5720 5717 5715 5714 5713 5712 5711 5709 5707 5703 5702 5699 5696 5693 5694 5693
5701 5710 5709 5709 5719 5723 5722 5725 5728 5727 5724 5724 5722 5718 5716 5713 5712 5712 5712 5712 5711 5711 5710 5710 5710 5710 5711 5711 5710 5707 5705 5705 5705 5704 5702 5701 5698 5693 5690 5689 5686 5682 5682 5681
5706 5709 5708 5711 5715 5717 5716 5717 5718 5717 5714 5712 5711 5709 5706 5704 5703 5703 5703 5702 5701 5700 5700 5699 5699 5699 5699 5700 5699 5697 5695 5695 5695 5693 5692 5690 5688 5684 5679 5677 5675 5672 5670 5669
5703 5701 5697 5702 5704 5707 5708 5708 5708 5706 5705 5704 5701 5699 5697 5695 5695 5694 5693 5692 5692 5692 5691 5690 5690 5689 5689 5689 5688 5687 5686 5685 5684 5683 5682 5680 5678 5676 5674 5670 5667 5664 5660 5657
5695 5696 5695 5696 5698 5699 5700 5699 5696 5694 5694 5693 5692 5690 5687 5685 5684 5684 5684 5684 5683 5681 5681 5680 5679 5678 5680 5679 5678 5676 5676 5676 5675 5674 5674 5671 5669 5668 5666 5662 5659 5656 5652 5647
5689 5690 5690 5689 5688 5690 5689 5687 5685 5684 5684 5683 5682 5681 5679 5677 5676 5676 5675 5674 5672 5670 5669 5669 5669 5669 5670 5670 5668 5667 5667 5666 5665 5665 5665 5663 5660 5657 5655 5652 5649 5646 5642 5638
5678 5677 5679 5679 5680 5680 5680 5680 5679 5678 5677 5675 5672 5672 5670 5668 5666 5665 5665 5664 5663 5661 5661 5660 5660 5661 5661 5660 5659 5660 5660 5659 5657 5656 5654 5652 5650 5647 5644 5642 5639 5636 5633 5630
5677 5676 5676 5675 5674 5673 5673 5673 5674 5672 5670 5668 5666 5664 5661 5659 5657 5656 5657 5656 5654 5652 5651 5651 5651 5652 5651 5651 5651 5651 5651 5651 5649 5647 5644 5642 5639 5637 5636 5633 5630 5628 5625 5622
5673 5672 5672 5671 5671 5669 5667 5667 5666 5664 5662 5660 5657 5654 5652 5651 5650 5649 5648 5647 5645 5643 5643 5643 5641 5642 5642 5642 5641 5641 5642 5642 5641 5639 5637 5633 5632 5630 5627 5625 5622 5619 5616 5613
5667 5667 5667 5666 5667 5664 5662 5660 5659 5656 5655 5654 5649 5646 5644 5643 5642 5641 5640 5638 5637 5637 5636 5635 5634 5633 5634 5633 5632 5634 5634 5633 5632 5630 5628 5626 5623 5620 5618 5615 5612 5608 5606 5602
5661 5662 5661 5660 5659 5657 5656 5653 5651 5648 5647 5645 5642 5638 5636 5636 5635 5634 5631 5630 5629 5629 5628 5626 5625 5625 5624 5623 5622 5624 5625 5624 5622 5621 5619 5616 5613 5610 5608 5605 5602 5598 5595 5591
5655 5655 5655 5654 5651 5649 5648 5647 5644 5642 5640 5638 5636 5633 5631 5629 5628 5626 5624 5623 5622 5619 5620 5619 5618 5615 5615 5614 5616 5616 5615 5614 5612 5611 5608 5606 5603 5599 5596 5594 5591 5588 5584 5581
5649 5648 5647 5646 5644 5641 5640 5639 5637 5635 5633 5631 5629 5627 5625 5623 5623 5620 5617 5617 5616 5612 5612 5611 5608 5607 5606 5608 5608 5607 5606 5605 5603 5601 5599 5596 5593 5589 5586 5583 5580 5576 5572 5569
5641 5641 5640 5639 5638 5634 5631 5630 5630 5628 5627 5626 5624 5623 5621 5618 5616 5616 5613 5610 5608 5605 5605 5602 5600 5599 5598 5600 5599 5599 5598 5596 5594 5592 5590 5587 5583 5580 5576 5573 5569 5565 5562 5558
5635 5634 5634 5632 5629 5627 5625 5624 5622 5621 5621 5620 5619 5618 5617 5615 5612 5610 5608 5606 5601 5600 5600 5596 5594 5593 5593 5593 5592 5591 5590 5588 5585 5583 5580 5577 5574 5570 5566 5562 5558 5554 5551 5547
5629 5629 5628 5626 5624 5623 5622 5620 5618 5617 5616 5614 5614 5614 5613 5611 5608 5606 5603 5601 5599 5595 5595 5593 5591 5588 5588 5587 5586 5584 5582 5580 5577 5574 5571 5568 5564 5560 5556 5552 5548 5545 5540 5536
5624 5623 5621 5620 5620 5619 5618 5616 5615 5613 5612 5611 5610 5609 5608 5606 5603 5601 5599 5597 5595 5592 5590 5588 5587 5585 5583 5581 5579 5577 5575 5572 5569 5566 5563 5559 5556 5551 5547 5543 5539 5535 5530 5526